Temp
-10 -10 -11 -11 -11 -11 -12 -12 -12 -12 -13 -13 -13 -13 -13 -14 -15 -15 -14 -14 -14 -14 -13 -13 -11 -10 -10 -11 -11 -11 -11 -11 -11 -11 -11 -11 -11 -11 -11 -10 -10 -10 -10 -10 -10 -10 -10 -11 -11
-10 -10 -10 -11 -11 -12 -12 -12 -12 -12 -13 -13 -13 -13 -13 -14 -15 -15 -15 -14 -14 -14 -14 -13 -12 -12 -11 -11 -10 -11 -11 -11 -11 -11 -11 -11 -11 -11 -11 -11 -11 -11 -10 -10 -10 -10 -10 -11 -11
-10 -10 -11 -11 -11 -12 -12 -12 -12 -12 -13 -13 -13 -13 -13 -14 -15 -15 -15 -15 -14 -14 -14 -13 -13 -13 -12 -11 -11 -11 -11 -11 -11 -11 -11 -11 -11 -11 -11 -11 -11 -11 -11 -10 -10 -10 -10 -10 -11
-10 -11 -11 -11 -11 -12 -12 -12 -13 -13 -13 -13 -13 -13 -14 -14 -15 -15 -15 -15 -15 -14 -14 -13 -14 -15 -13 -12 -12 -11 -11 -11 -11 -11 -11 -11 -11 -11 -11 -11 -11 -11 -11 -11 -10 -10 -10 -10 -11
-11 -11 -11 -11 -11 -12 -12 -12 -13 -13 -13 -13 -13 -14 -14 -14 -14 -14 -15 -15 -15 -14 -14 -14 -14 -14 -14 -14 -14 -12 -12 -11 -11 -11 -11 -11 -11 -11 -11 -11 -11 -11 -11 -11 -10 -10 -10 -10 -11
-11 -11 -11 -11 -12 -12 -12 -13 -13 -13 -13 -14 -14 -14 -14 -14 -14 -14 -14 -15 -15 -15 -14 -14 -14 -14 -14 -14 -15 -13 -13 -12 -11 -11 -10 -11 -11 -11 -11 -11 -11 -11 -11 -10 -10 -10 -10 -11 -11
-11 -11 -11 -12 -12 -12 -13 -13 -13 -13 -13 -14 -14 -14 -14 -14 -14 -14 -14 -14 -14 -15 -15 -14 -14 -14 -14 -14 -15 -15 -14 -12 -12 -12 -11 -11 -11 -11 -11 -11 -11 -11 -11 -11 -11 -11 -11 -11 -11
-11 -11 -11 -12 -12 -12 -12 -13 -13 -13 -14 -14 -14 -14 -14 -14 -14 -14 -14 -14 -14 -14 -15 -15 -15 -15 -15 -14 -14 -14 -15 -13 -13 -12 -12 -11 -12 -11 -11 -11 -11 -10 -11 -11 -11 -11 -11 -11 -11
-11 -11 -11 -12 -12 -12 -13 -13 -13 -14 -14 -14 -14 -15 -15 -15 -15 -15 -15 -14 -14 -14 -14 -15 -15 -15 -15 -15 -15 -14 -14 -15 -14 -13 -12 -12 -11 -11 -12 -11 -11 -10 -11 -11 -11 -11 -11 -10 -11
-11 -12 -12 -12 -12 -13 -13 -13 -13 -13 -14 -14 -14 -15 -15 -15 -15 -15 -15 -15 -15 -15 -15 -15 -15 -15 -15 -15 -15 -15 -15 -14 -15 -14 -13 -12 -12 -12 -12 -11 -12 -11 -11 -11 -11 -11 -11 -11 -11
-11 -12 -12 -12 -13 -13 -13 -14 -14 -14 -14 -14 -15 -15 -15 -15 -15 -15 -15 -15 -15 -15 -15 -15 -15 -15 -16 -16 -15 -15 -15 -14 -14 -14 -13 -14 -12 -12 -12 -12 -12 -12 -12 -11 -11 -11 -11 -11 -11
-12 -12 -12 -13 -13 -14 -14 -14 -14 -14 -14 -14 -15 -15 -15 -15 -16 -16 -15 -15 -15 -15 -15 -15 -15 -16 -16 -16 -16 -16 -16 -15 -15 -15 -14 -15 -14 -13 -12 -13 -12 -12 -11 -11 -11 -11 -11 -11 -11
-12 -12 -12 -13 -13 -14 -14 -15 -15 -15 -14 -15 -15 -15 -15 -16 -16 -16 -16 -16 -15 -16 -16 -16 -16 -16 -16 -16 -16 -16 -16 -16 -16 -15 -15 -15 -15 -15 -13 -13 -12 -12 -12 -12 -12 -11 -11 -12 -12
-12 -12 -12 -13 -13 -14 -15 -15 -15 -15 -15 -15 -15 -15 -16 -16 -16 -16 -16 -16 -16 -16 -16 -16 -16 -16 -16 -16 -16 -17 -17 -17 -16 -16 -15 -15 -15 -15 -15 -14 -14 -13 -12 -12 -12 -12 -12 -12 -12
-12 -13 -13 -13 -14 -14 -15 -15 -15 -15 -15 -15 -16 -16 -16 -16 -16 -16 -16 -17 -17 -17 -16 -16 -16 -16 -16 -16 -17 -17 -17 -17 -17 -16 -16 -16 -16 -15 -15 -15 -15 -14 -13 -13 -13 -13 -12 -12 -12
-13 -13 -13 -13 -14 -14 -15 -16 -16 -16 -16 -16 -16 -16 -17 -17 -17 -17 -17 -17 -17 -17 -17 -17 -17 -17 -17 -17 -17 -17 -17 -17 -17 -17 -16 -16 -17 -16 -16 -15 -15 -15 -14 -14 -13 -13 -13 -13 -13
-13 -13 -14 -13 -14 -15 -16 -17 -16 -16 -17 -17 -17 -17 -17 -17 -17 -17 -17 -17 -18 -17 -18 -17 -17 -18 -18 -18 -18 -18 -18 -18 -18 -17 -17 -17 -17 -17 -16 -16 -16 -15 -14 -14 -14 -14 -13 -14 -13
-13 -13 -13 -14 -14 -14 -15 -16 -17 -17 -17 -17 -17 -17 -18 -18 -18 -18 -18 -18 -18 -18 -18 -18 -18 -18 -18 -18 -19 -19 -19 -19 -19 -18 -18 -18 -17 -17 -17 -17 -16 -15 -15 -15 -14 -14 -14 -13 -14
-13 -13 -14 -14 -14 -15 -16 -17 -17 -18 -18 -18 -18 -18 -18 -18 -18 -18 -19 -19 -19 -19 -19 -19 -19 -19 -19 -19 -19 -19 -19 -19 -19 -19 -19 -19 -18 -18 -17 -17 -17 -17 -16 -16 -16 -15 -14 -14 -14
-13 -14 -14 -14 -15 -15 -16 -17 -18 -18 -18 -18 -18 -19 -19 -19 -19 -19 -19 -20 -20 -20 -20 -20 -20 -20 -20 -20 -20 -20 -20 -20 -20 -19 -19 -19 -19 -18 -18 -18 -17 -16 -17 -17 -16 -15 -15 -15 -14
-14 -14 -14 -15 -15 -16 -17 -17 -18 -18 -18 -19 -19 -19 -20 -20 -20 -20 -20 -21 -21 -21 -22 -21 -21 -21 -21 -21 -21 -20 -20 -20 -20 -20 -19 -19 -19 -19 -18 -17 -17 -17 -16 -17 -16 -16 -15 -15 -15
-14 -14 -15 -15 -15 -16 -17 -18 -18 -19 -19 -19 -20 -20 -20 -21 -21 -21 -22 -22 -22 -22 -23 -23 -22 -22 -21 -21 -21 -21 -21 -21 -21 -20 -20 -20 -19 -19 -18 -17 -18 -17 -16 -17 -17 -16 -16 -15 -15
-15 -15 -15 -16 -16 -17 -18 -19 -19 -19 -19 -20 -21 -21 -21 -21 -22 -22 -22 -23 -23 -23 -23 -24 -23 -23 -23 -22 -22 -22 -22 -21 -21 -21 -20 -20 -20 -19 -19 -19 -17 -18 -18 -18 -17 -17 -17 -16 -15
-16 -16 -16 -16 -17 -18 -19 -19 -19 -19 -19 -21 -21 -21 -22 -22 -23 -23 -24 -24 -24 -24 -25 -25 -25 -25 -24 -24 -23 -23 -22 -22 -22 -22 -21 -21 -20 -20 -19 -19 -19 -18 -18 -18 -18 -18 -17 -17 -16
-16 -17 -17 -17 -18 -19 -19 -19 -20 -20 -21 -21 -22 -22 -23 -24 -24 -25 -25 -25 -25 -26 -26 -26 -26 -26 -26 -26 -24 -24 -24 -23 -23 -22 -22 -21 -21 -20 -20 -19 -19 -19 -18 -18 -18 -18 -18 -18 -17
-17 -18 -18 -18 -19 -19 -20 -20 -21 -21 -22 -22 -22 -23 -24 -24 -25 -25 -26 -27 -28 -28 -28 -28 -28 -29 -28 -27 -26 -25 -25 -24 -24 -23 -22 -22 -22 -22 -21 -20 -20 -19 -19 -19 -18 -18 -18 -17 -17
-18 -19 -19 -19 -20 -20 -20 -21 -21 -22 -23 -23 -24 -24 -25 -25 -25 -26 -27 -29 -30 -30 -29 -30 -30 -29 -29 -29 -28 -27 -27 -26 -25 -24 -24 -23 -22 -22 -22 -21 -20 -20 -20 -19 -19 -19 -19 -18 -18
-19 -19 -20 -20 -21 -21 -20 -21 -22 -23 -23 -24 -24 -25 -25 -26 -27 -27 -27 -28 -30 -30 -30 -30 -31 -29 -29 -29 -28 -28 -28 -27 -27 -26 -24 -24 -23 -22 -23 -22 -21 -21 -20 -20 -20 -20 -19 -19 -18
-20 -20 -21 -21 -21 -22 -22 -21 -23 -24 -24 -24 -25 -25 -26 -27 -27 -27 -27 -28 -31 -31 -31 -31 -31 -30 -30 -29 -29 -29 -28 -28 -28 -27 -26 -25 -24 -23 -22 -22 -22 -21 -21 -21 -21 -20 -20 -20 -20
-20 -21 -21 -21 -22 -23 -23 -22 -24 -24 -25 -25 -25 -26 -27 -28 -28 -28 -28 -29 -31 -31 -31 -31 -31 -31 -31 -30 -29 -29 -29 -28 -28 -28 -27 -26 -26 -25 -24 -23 -22 -22 -21 -21 -21 -21 -21 -20 -20
Height
5826 5822 5819 5817 5818 5812 5809 5808 5806 5804 5801 5798 5796 5793 5791 5789 5789 5789 5785 5783 5781 5781 5780 5775 5770 5759 5774 5777 5780 5781 5785 5786 5787 5788 5789 5792 5793 5795 5795 5795 5797 5799 5799 5798 5799 5800 5802 5804 5805
5824 5821 5818 5815 5815 5812 5810 5807 5806 5802 5799 5796 5793 5791 5789 5787 5786 5785 5783 5780 5778 5776 5775 5774 5768 5765 5767 5774 5773 5777 5779 5780 5782 5784 5786 5788 5789 5791 5790 5791 5792 5795 5796 5795 5796 5797 5799 5801 5803
5822 5819 5817 5814 5812 5810 5809 5806 5805 5802 5798 5796 5793 5789 5788 5785 5783 5781 5779 5777 5775 5773 5773 5773 5768 5766 5761 5763 5765 5774 5775 5774 5775 5776 5779 5781 5784 5785 5785 5787 5788 5789 5790 5790 5792 5793 5796 5798 5799
5821 5817 5815 5812 5810 5809 5807 5805 5803 5800 5796 5795 5792 5789 5787 5784 5781 5778 5775 5774 5771 5770 5769 5769 5767 5765 5762 5760 5762 5760 5763 5768 5772 5771 5772 5773 5775 5778 5781 5783 5784 5784 5785 5786 5788 5789 5791 5793 5794
5819 5815 5812 5810 5808 5808 5806 5804 5802 5799 5796 5793 5791 5789 5786 5783 5780 5777 5774 5772 5770 5768 5767 5765 5762 5764 5759 5751 5753 5749 5754 5762 5767 5767 5770 5771 5772 5774 5776 5776 5778 5779 5780 5782 5783 5785 5786 5789 5790
5817 5814 5811 5809 5807 5806 5805 5803 5800 5798 5794 5792 5790 5788 5785 5782 5778 5775 5772 5769 5767 5764 5764 5762 5759 5757 5756 5752 5753 5747 5748 5755 5755 5761 5754 5764 5765 5766 5767 5768 5772 5773 5775 5777 5779 5779 5782 5784 5786
5815 5811 5809 5807 5806 5804 5802 5800 5798 5796 5793 5791 5788 5786 5784 5781 5777 5773 5771 5767 5763 5761 5759 5759 5755 5753 5750 5750 5748 5745 5745 5744 5747 5750 5752 5752 5757 5759 5760 5765 5768 5768 5769 5771 5773 5774 5777 5780 5781
5812 5810 5806 5804 5802 5802 5801 5799 5796 5794 5792 5789 5787 5784 5781 5778 5775 5772 5769 5765 5761 5758 5755 5753 5753 5749 5747 5747 5745 5742 5738 5738 5738 5743 5745 5748 5752 5752 5755 5759 5761 5751 5761 5763 5766 5768 5772 5774 5777
5810 5808 5804 5802 5801 5800 5799 5797 5794 5791 5789 5785 5783 5781 5778 5775 5772 5769 5766 5763 5760 5755 5753 5749 5746 5745 5743 5742 5740 5738 5736 5737 5736 5735 5738 5739 5741 5745 5750 5752 5754 5737 5747 5755 5759 5762 5766 5767 5770
5808 5806 5802 5800 5799 5796 5794 5793 5791 5789 5786 5782 5780 5778 5775 5773 5770 5766 5763 5760 5757 5753 5747 5745 5742 5739 5737 5736 5736 5733 5732 5731 5733 5733 5731 5733 5735 5737 5740 5744 5746 5745 5743 5748 5752 5756 5760 5762 5764
5806 5803 5800 5798 5796 5794 5792 5789 5786 5784 5782 5779 5777 5773 5770 5767 5764 5762 5759 5756 5753 5749 5745 5740 5738 5735 5733 5731 5731 5730 5727 5725 5727 5727 5726 5724 5727 5730 5734 5737 5740 5741 5742 5741 5744 5748 5752 5755 5757
5803 5800 5797 5795 5794 5791 5789 5787 5784 5780 5777 5774 5772 5769 5766 5763 5758 5755 5753 5751 5748 5744 5741 5738 5733 5730 5728 5725 5724 5724 5722 5720 5721 5721 5720 5719 5719 5722 5723 5726 5730 5732 5733 5735 5738 5741 5743 5747 5750
5798 5796 5794 5792 5790 5788 5786 5784 5780 5776 5772 5769 5767 5766 5762 5759 5755 5751 5747 5744 5741 5738 5735 5732 5729 5725 5722 5721 5717 5716 5716 5714 5714 5714 5714 5713 5714 5715 5717 5720 5721 5724 5728 5729 5730 5733 5735 5739 5744
5796 5793 5791 5788 5786 5784 5783 5779 5775 5771 5767 5764 5762 5760 5757 5752 5748 5744 5740 5739 5736 5732 5728 5725 5722 5719 5716 5713 5711 5708 5708 5707 5707 5707 5707 5706 5705 5709 5710 5712 5714 5716 5719 5723 5724 5727 5728 5731 5736
5791 5789 5786 5784 5781 5779 5779 5775 5770 5766 5763 5759 5756 5754 5749 5743 5738 5734 5732 5730 5728 5725 5721 5717 5713 5711 5709 5707 5704 5702 5700 5700 5700 5699 5700 5701 5699 5703 5705 5707 5708 5709 5712 5715 5719 5720 5722 5725 5729
5787 5784 5782 5778 5776 5774 5772 5770 5764 5760 5757 5753 5749 5745 5741 5736 5730 5726 5723 5721 5718 5715 5712 5709 5705 5702 5700 5698 5696 5694 5692 5691 5692 5692 5691 5692 5693 5696 5697 5700 5702 5705 5705 5707 5710 5713 5715 5718 5721
5783 5779 5776 5772 5770 5768 5765 5764 5758 5754 5751 5746 5741 5737 5731 5726 5722 5717 5713 5710 5707 5705 5703 5699 5696 5693 5690 5689 5687 5686 5685 5684 5682 5683 5683 5684 5687 5689 5691 5693 5696 5698 5698 5699 5702 5705 5708 5711 5714
5777 5773 5770 5766 5765 5761 5759 5755 5751 5747 5742 5737 5733 5727 5722 5717 5712 5708 5705 5701 5697 5693 5690 5688 5686 5683 5680 5679 5677 5677 5676 5676 5675 5675 5675 5677 5679 5681 5683 5686 5689 5692 5692 5693 5695 5697 5699 5703 5706
5771 5768 5764 5760 5757 5755 5751 5747 5744 5739 5734 5729 5724 5718 5714 5709 5703 5699 5695 5690 5686 5683 5679 5676 5674 5671 5670 5669 5668 5667 5667 5668 5667 5667 5668 5667 5671 5675 5677 5680 5682 5685 5686 5689 5690 5690 5693 5695 5697
5764 5761 5758 5754 5750 5748 5743 5739 5734 5731 5726 5720 5713 5709 5704 5699 5694 5689 5683 5678 5674 5671 5668 5665 5663 5660 5658 5658 5657 5657 5657 5658 5659 5660 5660 5661 5661 5665 5670 5672 5676 5675 5678 5680 5683 5685 5686 5688 5691
5758 5754 5751 5748 5744 5740 5736 5731 5727 5723 5716 5711 5703 5698 5693 5689 5683 5677 5672 5667 5663 5659 5656 5654 5651 5649 5647 5646 5646 5646 5646 5647 5649 5650 5651 5652 5654 5656 5659 5664 5667 5671 5672 5673 5675 5677 5680 5681 5683
5751 5747 5744 5741 5737 5733 5728 5723 5719 5713 5706 5698 5694 5689 5683 5678 5673 5667 5662 5657 5652 5647 5644 5641 5639 5637 5635 5633 5633 5634 5634 5635 5637 5639 5641 5643 5645 5647 5647 5647 5655 5661 5658 5663 5666 5669 5671 5674 5676
5743 5739 5736 5732 5728 5723 5719 5715 5710 5704 5696 5691 5685 5679 5674 5668 5664 5658 5651 5645 5639 5633 5629 5625 5623 5623 5622 5620 5619 5620 5621 5623 5625 5627 5631 5633 5635 5638 5637 5641 5639 5647 5650 5655 5657 5660 5664 5666 5669
5734 5731 5728 5724 5720 5713 5710 5705 5701 5694 5688 5681 5675 5672 5665 5659 5653 5646 5638 5631 5625 5619 5613 5609 5607 5606 5605 5606 5606 5606 5608 5610 5612 5615 5618 5622 5625 5627 5629 5630 5633 5637 5640 5643 5647 5651 5655 5657 5660
5725 5722 5718 5715 5710 5704 5699 5694 5691 5681 5676 5671 5668 5663 5656 5649 5640 5632 5625 5616 5608 5603 5599 5593 5590 5589 5589 5590 5591 5593 5595 5597 5600 5603 5606 5608 5614 5616 5619 5621 5624 5628 5630 5633 5638 5641 5645 5648 5651
5717 5714 5711 5705 5702 5697 5691 5686 5682 5674 5665 5661 5656 5650 5644 5634 5625 5616 5606 5595 5588 5583 5580 5577 5574 5573 5574 5577 5579 5580 5582 5585 5588 5591 5593 5596 5601 5607 5607 5610 5614 5617 5621 5624 5629 5631 5633 5637 5642
5710 5707 5704 5699 5695 5688 5684 5677 5670 5662 5655 5651 5646 5637 5629 5619 5608 5598 5589 5579 5573 5569 5566 5564 5562 5561 5564 5565 5567 5569 5570 5573 5577 5580 5583 5586 5590 5593 5597 5600 5603 5608 5611 5614 5618 5618 5622 5627 5633
5702 5700 5696 5691 5685 5680 5674 5668 5663 5653 5645 5640 5633 5625 5616 5603 5593 5584 5576 5567 5561 5555 5553 5551 5550 5551 5553 5554 5555 5557 5559 5561 5563 5566 5569 5573 5579 5581 5584 5589 5594 5597 5600 5603 5606 5610 5610 5615 5620
5694 5692 5689 5684 5679 5672 5664 5658 5652 5641 5635 5631 5621 5610 5598 5591 5583 5575 5565 5554 5548 5544 5542 5539 5540 5540 5540 5540 5542 5544 5546 5549 5552 5554 5557 5560 5565 5569 5574 5578 5583 5586 5589 5594 5597 5600 5603 5606 5609
5685 5683 5680 5674 5670 5663 5657 5654 5642 5631 5622 5617 5607 5597 5590 5580 5572 5565 5556 5545 5535 5532 5529 5528 5528 5528 5527 5528 5530 5531 5534 5537 5540 5544 5547 5550 5553 5558 5562 5567 5571 5575 5578 5583 5587 5591 5593 5595 5600
Wind_Speed
33 29 31 29 28 19 16 16 15 13 13 17 20 21 18 15 13 18 19 21 22 21 24 30 33 7 22 27 21 21 23 27 25 23 23 23 22 22 21 22 23 21 18 19 18 17 15 15 14
32 28 31 31 29 23 20 17 14 14 17 16 21 22 19 16 13 17 18 23 22 26 26 28 31 27 16 21 22 28 27 29 27 26 25 25 23 24 24 24 24 24 22 22 20 20 18 18 17
32 31 28 30 28 20 19 19 17 16 18 17 18 21 21 16 14 14 18 23 25 26 27 26 28 32 24 18 21 27 27 29 29 29 29 28 28 28 29 28 27 27 26 26 22 22 21 19 19
32 30 27 29 29 23 21 19 16 17 19 18 18 18 18 14 13 16 19 23 26 28 28 28 33 33 36 31 9 11 26 31 29 31 32 32 33 33 31 30 30 30 29 28 26 23 22 21 18
30 28 25 26 28 25 23 21 17 18 19 19 19 17 17 14 14 16 20 23 26 28 30 31 34 32 35 34 31 17 9 27 29 31 27 35 34 33 34 35 34 33 32 30 28 25 20 23 19
29 26 24 24 27 26 24 24 23 20 21 20 19 18 16 15 14 14 19 22 26 29 30 32 33 35 37 37 42 43 15 23 19 29 22 37 35 36 36 38 38 37 35 34 32 28 28 26 24
27 24 23 22 25 24 23 23 26 24 22 21 19 19 18 17 16 17 16 22 25 29 32 33 34 37 40 41 43 45 38 20 23 22 31 29 34 32 38 37 38 40 40 38 35 32 30 27 28
27 24 22 21 21 24 24 23 25 27 24 23 21 20 21 20 19 19 19 21 24 26 33 36 37 38 39 38 39 43 49 34 25 30 26 29 32 36 29 30 31 41 44 42 39 35 33 32 31
26 25 23 22 22 23 26 25 25 26 25 27 24 22 21 21 21 23 24 24 25 27 26 32 39 40 40 39 41 41 41 45 45 34 30 28 30 35 38 37 35 37 42 43 40 38 36 39 39
26 25 24 23 24 22 23 22 25 30 27 28 26 24 23 21 20 22 25 26 27 27 29 29 31 35 40 40 40 42 42 41 46 47 40 38 33 35 37 37 39 40 35 43 41 39 40 41 41
26 25 25 24 23 23 24 20 22 27 28 31 30 31 29 27 25 24 25 27 28 30 29 31 32 32 35 37 38 40 43 43 41 45 49 48 37 34 43 40 43 38 38 39 39 39 41 44 43
23 24 25 26 26 25 24 24 25 27 28 30 30 29 29 30 30 29 28 29 31 32 33 30 32 33 33 35 39 39 38 38 42 43 45 52 55 50 32 29 47 36 35 49 36 38 37 40 41
22 23 25 25 26 28 28 26 27 29 30 32 32 31 32 32 32 32 31 30 31 34 34 33 32 33 34 35 37 39 40 40 39 40 45 50 55 58 52 46 40 40 46 36 36 44 44 39 37
24 25 27 28 28 29 29 30 31 31 35 36 37 35 34 34 36 38 36 34 33 34 36 36 35 34 35 36 37 39 39 40 42 43 41 44 48 52 52 54 47 46 45 36 34 47 46 45 41
25 26 27 30 30 32 29 30 32 35 38 40 41 36 36 37 41 44 41 36 34 35 36 39 39 37 36 36 36 37 38 40 42 44 44 41 39 41 40 38 43 43 41 40 34 39 40 45 42
25 27 29 32 33 33 33 30 35 37 38 41 43 42 42 42 43 43 43 41 37 37 38 40 41 41 39 38 37 37 37 37 38 39 40 39 33 38 35 32 29 25 30 35 35 28 30 40 44
28 29 31 34 34 34 33 30 35 38 38 41 43 43 44 44 45 44 44 44 41 40 40 40 43 44 43 40 39 37 37 35 34 32 37 33 33 35 36 30 27 28 27 27 29 31 29 33 42
29 31 33 35 35 38 38 37 37 38 40 43 44 45 45 46 47 47 46 47 47 46 44 43 44 46 46 43 42 39 36 34 31 31 27 37 38 38 37 38 34 30 31 29 28 34 33 32 39
30 33 34 36 37 38 40 41 39 39 41 44 47 48 48 49 51 51 51 51 51 50 50 48 46 48 48 47 44 42 38 35 32 30 30 29 37 33 36 34 36 33 32 22 23 23 25 36 36
32 34 35 36 38 40 42 44 44 43 44 46 48 49 50 50 51 52 53 53 51 49 48 47 47 49 49 48 46 44 41 37 34 31 34 31 32 36 28 31 32 31 33 32 25 27 22 28 35
35 36 37 38 39 41 44 44 45 44 45 48 51 51 49 48 48 48 49 48 47 45 44 44 46 48 51 50 49 46 43 39 37 34 32 37 33 33 32 38 34 24 23 29 24 26 30 29 29
37 39 40 41 42 44 45 43 43 46 49 50 49 48 46 44 44 45 48 51 52 51 46 43 42 45 49 52 50 48 45 43 39 38 34 34 38 33 29 22 28 36 23 38 34 31 27 30 28
39 39 40 41 45 44 42 43 44 44 48 49 46 42 45 47 49 53 56 53 55 59 60 58 52 45 43 48 51 50 47 44 41 39 38 35 35 41 42 36 22 34 31 32 36 34 26 34 31
40 39 41 44 44 41 41 42 42 46 48 47 47 47 51 53 57 59 63 65 66 67 67 66 63 60 53 44 47 48 47 45 41 39 40 38 36 36 42 38 38 38 35 29 36 34 33 32 29
39 39 40 44 43 40 41 43 43 47 48 48 48 50 55 60 64 66 68 71 73 70 69 68 64 58 49 38 41 45 43 42 39 38 39 39 36 36 35 40 36 43 38 35 36 37 39 37 36
38 36 37 42 39 39 40 44 42 47 50 53 52 56 61 67 72 76 73 62 55 52 52 53 51 39 40 38 39 41 39 38 38 38 40 39 38 32 35 35 39 36 40 37 40 47 46 44 40
35 34 35 37 38 40 43 45 46 50 54 54 57 61 67 74 72 59 61 55 48 46 47 43 45 40 35 32 34 35 35 36 36 35 39 41 39 38 42 38 37 40 34 36 32 40 41 45 43
31 32 34 36 38 40 44 47 46 53 55 59 60 66 73 62 55 56 58 57 47 45 45 40 38 36 33 35 34 31 34 34 36 37 38 40 40 33 38 38 38 42 43 39 35 35 34 41 49
28 30 32 35 36 38 45 51 50 54 59 60 65 71 61 53 54 56 57 56 45 44 44 39 38 41 41 39 39 37 39 36 35 36 38 38 42 50 46 42 41 45 40 31 43 38 39 43 41
27 29 32 35 37 38 43 49 51 56 60 63 69 60 51 49 51 54 55 56 45 41 41 41 38 39 43 43 41 39 43 44 41 39 37 38 35 41 47 51 51 48 44 47 35 32 34 40 42
Wind_Direction
344 336 340 345 342 335 343 349 347 350 341 345 353 349 334 302 269 276 274 269 266 261 246 253 236 229 207 204 236 229 243 241 238 238 239 242 240 238 234 237 241 242 240 245 244 242 239 240 240
344 334 337 345 346 340 344 344 347 338 339 354 355 358 351 332 307 280 287 272 262 258 253 261 260 252 210 213 197 235 239 239 235 238 241 244 241 243 240 237 237 240 240 242 241 244 237 237 241
340 339 339 344 346 345 342 339 342 340 344 355 0 359 360 344 321 293 276 279 274 268 265 261 266 267 256 240 189 218 226 225 234 233 233 237 242 239 241 238 236 239 238 242 242 244 243 239 241
337 342 344 347 340 343 343 340 343 338 342 349 357 358 3 346 318 292 277 272 273 272 272 266 275 281 259 264 266 263 211 220 223 231 240 231 232 236 239 242 239 238 238 241 241 245 249 241 242
338 341 348 342 342 342 341 338 338 341 340 348 352 356 359 351 334 312 292 281 280 279 279 279 278 277 274 286 275 256 221 220 231 226 240 243 238 238 241 240 240 241 239 241 242 243 245 250 249
339 340 346 342 342 341 343 341 338 340 338 342 343 347 353 343 341 325 305 289 280 278 276 275 278 280 279 283 286 265 262 211 210 227 244 237 239 238 236 239 241 240 241 242 243 241 241 247 248
335 342 344 346 342 337 342 342 341 339 332 334 336 339 340 338 336 330 322 311 296 280 276 271 274 279 284 286 282 283 270 239 236 225 229 218 224 232 238 240 245 245 241 242 242 244 244 240 248
333 337 336 337 336 333 337 339 340 334 335 330 332 334 332 332 329 325 323 319 313 304 283 275 273 275 279 284 283 284 282 266 253 232 229 222 228 230 230 239 243 245 243 237 238 241 244 237 237
332 333 329 331 337 336 333 331 331 331 333 328 331 330 329 327 322 319 318 319 319 315 303 289 278 275 278 279 280 281 283 279 271 261 229 224 224 231 224 236 229 215 227 232 235 238 236 233 240
330 330 332 332 333 334 328 328 326 327 329 324 326 325 325 320 317 316 314 311 311 310 310 305 295 284 276 277 278 280 282 280 271 275 262 234 220 235 231 240 244 246 232 229 229 233 235 240 240
326 326 330 330 329 326 320 322 321 320 323 322 325 324 322 320 317 316 313 308 305 304 303 304 300 294 282 276 275 278 280 276 271 271 268 259 228 221 237 227 243 232 240 237 233 235 239 240 238
323 321 325 327 328 323 319 319 314 315 312 315 316 316 315 313 311 311 311 309 305 302 299 296 295 295 290 285 276 275 278 278 269 268 269 270 257 244 237 239 231 233 239 244 233 236 237 241 240
317 317 322 323 324 321 320 317 312 309 306 308 309 311 310 308 305 303 302 303 303 298 295 293 289 290 290 287 284 275 274 274 275 272 268 270 270 268 257 256 241 238 240 264 251 241 236 236 235
316 317 317 318 319 321 320 316 311 305 305 306 307 309 308 304 302 298 297 300 300 296 293 290 286 284 285 287 284 279 273 274 274 273 273 276 273 269 269 268 264 256 252 249 252 240 243 243 240
312 314 315 313 315 317 317 313 306 305 307 308 308 305 301 296 296 299 300 299 294 290 287 287 286 283 282 282 281 281 278 275 272 272 272 271 274 267 267 270 273 272 263 245 249 249 246 243 243
305 310 312 310 311 315 314 308 305 304 306 307 304 302 300 296 293 292 293 291 289 286 283 281 280 280 278 278 279 279 280 278 270 272 267 265 269 270 267 269 272 264 263 261 254 252 248 248 246
304 305 305 304 308 311 309 305 301 303 302 301 301 299 294 292 292 290 288 288 288 284 280 277 277 276 275 275 276 276 278 280 275 281 262 254 258 258 269 267 257 241 237 246 251 248 251 249 246
303 302 302 301 305 306 309 308 304 303 303 300 299 297 295 293 290 289 288 289 287 284 279 275 273 273 273 273 274 274 273 277 278 281 266 248 249 258 268 271 262 254 242 252 243 238 238 245 243
301 302 303 302 304 306 307 306 306 303 302 301 299 296 296 294 293 292 290 288 286 284 281 278 275 273 272 272 271 271 271 271 271 271 271 259 246 253 259 262 268 265 264 272 274 259 244 243 248
301 301 300 300 302 304 306 309 307 306 303 301 298 296 295 293 293 293 292 290 289 287 284 281 276 274 273 272 271 268 268 267 268 266 259 259 248 244 256 260 263 257 264 264 246 242 264 253 243
300 300 299 301 304 306 309 306 305 305 302 301 298 298 299 298 293 289 288 290 292 293 290 285 281 276 273 271 270 267 265 264 263 263 258 254 257 240 250 256 244 250 240 250 240 245 241 246 248
299 301 302 303 305 307 307 308 308 305 304 301 303 305 305 298 293 296 302 302 301 301 300 296 290 280 274 272 270 267 263 262 260 259 257 254 248 241 222 226 238 234 245 249 242 252 249 244 233
299 302 305 306 305 305 307 307 306 305 304 306 307 307 304 300 301 304 306 305 304 304 305 305 300 293 280 271 269 267 264 260 259 257 256 253 249 244 245 237 254 234 230 245 249 250 246 251 246
300 304 306 306 304 305 308 308 309 308 307 306 305 307 304 306 309 310 309 307 305 304 304 303 302 302 296 284 268 264 262 260 257 254 253 253 251 248 244 242 235 237 232 236 244 243 244 251 248
299 304 308 305 306 309 312 309 312 309 308 306 307 304 307 312 311 309 307 304 301 298 295 295 294 292 289 281 267 264 261 256 252 249 248 248 248 248 247 243 237 231 237 235 239 239 244 244 249
301 306 308 303 307 310 311 310 314 311 307 309 310 311 312 312 311 309 309 308 303 295 287 283 278 281 279 271 266 263 256 250 248 247 244 242 242 238 242 241 235 230 225 232 240 238 239 241 235
301 306 304 301 305 311 316 315 318 315 311 313 313 315 313 313 314 318 318 314 305 295 285 285 283 283 269 270 263 260 256 251 246 244 244 242 238 238 240 241 234 231 238 223 227 225 240 237 231
299 305 305 305 309 316 321 323 321 312 314 315 317 316 317 321 323 325 323 314 303 295 290 282 286 264 271 264 256 263 264 259 252 241 238 238 233 223 232 235 235 227 227 235 242 237 231 232 225
299 302 302 306 310 315 326 326 320 311 314 318 318 321 324 325 327 327 326 320 302 291 288 281 282 267 265 261 254 251 248 251 254 254 240 237 231 234 232 231 234 231 236 243 244 239 233 237 235
298 300 303 313 312 316 312 331 312 315 317 319 323 325 327 334 334 332 331 329 309 293 291 282 268 265 265 259 250 251 250 247 246 246 249 240 235 233 233 232 235 233 233 236 232 237 245 240 241